Lid_Strength_Index
-1 -1 -1 -1 -1 -1 -1 -1 -1 -1 -1 -1 -1 -1 -1 -0 1 3 5 3 1 -0 -1 3 4 5 6 7 7 8 13 14 12 12 11 10 10 9 9 9 9 8 6 4 2
-1 -1 -1 -1 -1 -1 -1 -1 -1 -1 -1 -1 -1 -1 -1 0 3 5 1 -0 -0 -1 3 6 7 6 8 8 8 10 13 12 11 11 11 10 10 10 11 11 10 7 6 3 3
-1 -1 -1 -1 -1 -1 -1 -1 -1 -1 -1 -1 -1 -1 -1 1 4 5 -0 0 0 0 2 4 5 6 9 9 9 10 11 10 10 9 9 10 11 9 11 12 10 9 6 4 4
-1 -1 -1 -1 -1 -1 -1 -1 -1 -1 -1 -1 -1 -1 -0 2 10 4 0 1 0 1 3 5 6 9 10 10 8 11 9 9 8 8 9 10 9 11 10 10 9 9 5 4 4
-1 -1 -1 -1 -1 -0 -0 -1 -1 -1 -1 -1 -1 -1 2 5 5 2 -0 1 2 3 5 6 8 9 10 10 9 11 10 9 8 9 10 9 11 11 10 9 9 8 6 5 4
-1 -1 -1 -1 -1 -0 -0 -0 -1 -1 -1 -1 -1 0 4 8 4 3 4 4 3 4 6 6 7 7 9 9 10 9 9 9 9 9 9 11 11 11 10 9 9 9 8 6 6
-1 -1 -1 -1 -1 -0 -0 -0 -1 -1 -1 -1 -1 2 5 6 4 4 5 5 5 5 6 5 6 8 8 10 9 9 11 10 10 9 10 10 11 11 9 9 9 9 9 9 8
-0 -1 -1 -1 -1 -0 -0 -0 -0 -0 -1 -1 -0 4 7 4 5 4 4 5 4 4 4 5 5 6 8 8 9 11 11 13 10 10 10 11 13 9 9 9 10 9 10 9 8
0 -0 -1 -1 -1 -0 0 -0 -0 -1 -1 0 3 5 7 3 6 4 5 5 5 5 5 5 6 8 9 11 12 12 15 13 12 10 10 12 13 9 9 9 10 10 10 9 9
2 -0 -1 -1 -1 -0 0 -0 0 0 1 2 3 7 7 7 6 5 5 4 6 6 6 7 8 11 12 13 16 14 14 12 13 11 11 13 13 11 10 10 10 10 10 10 9
2 2 -0 -0 -0 -0 1 2 4 6 4 7 7 7 6 5 5 5 4 5 6 7 10 8 12 14 12 11 11 12 13 14 13 11 12 13 12 10 9 10 10 11 11 10 9
3 2 1 -1 -1 -0 1 4 4 4 8 4 4 5 5 5 7 6 4 8 8 11 9 11 13 10 9 9 11 12 14 14 12 11 13 13 12 10 10 10 9 10 10 10 10
2 1 0 1 -0 1 3 3 2 3 9 7 5 5 5 5 7 7 6 7 9 10 10 12 10 8 9 10 11 13 14 14 13 12 12 13 14 12 10 10 9 10 10 10 10
3 1 -0 0 4 3 4 2 2 3 14 12 8 6 5 5 8 5 5 7 8 10 10 10 9 10 11 11 11 14 11 11 11 14 18 13 19 14 12 12 11 11 11 11 10
4 3 1 0 3 5 3 1 2 5 24 11 8 5 6 8 8 8 5 7 10 10 10 11 11 11 11 11 10 12 10 11 12 14 16 16 18 15 13 13 12 11 11 11 10
3 3 2 2 2 2 1 1 4 13 22 13 10 10 9 9 8 7 7 7 7 10 10 11 9 9 10 10 10 9 11 11 13 15 20 16 17 17 14 13 12 11 11 10 10
2 4 2 3 5 1 1 4 13 19 13 13 13 10 10 11 10 9 10 11 12 14 14 11 11 10 9 12 10 11 13 19 20 22 20 15 16 16 13 12 11 11 10 10 10
3 3 2 3 1 1 3 9 17 15 15 11 11 11 12 11 10 10 11 13 11 12 14 16 17 11 10 11 12 13 12 18 22 21 19 15 17 16 11 10 9 9 9 9 9
4 4 3 3 2 2 7 14 16 15 11 11 11 14 13 11 11 11 12 12 11 11 13 15 15 11 10 10 10 13 14 11 15 16 19 17 15 12 11 10 11 11 10 11 10
6 5 4 2 2 4 10 13 14 11 10 10 14 12 15 12 12 12 12 10 10 9 9 11 16 12 11 11 11 12 11 15 16 20 21 18 18 16 13 12 12 12 12 11 10
5 7 4 2 3 9 14 13 12 10 10 12 13 13 13 13 12 12 12 11 9 9 8 11 13 15 12 13 13 13 14 13 13 15 19 20 18 12 12 12 12 12 11 11 11
8 12 6 2 9 10 14 12 9 10 9 10 11 11 13 12 13 13 12 11 8 9 11 10 13 17 15 12 11 12 12 13 16 17 17 18 18 11 12 12 12 12 12 12 11
11 10 7 5 12 12 11 12 10 10 10 10 11 10 10 12 13 12 11 9 8 9 10 10 13 18 16 14 13 13 12 12 12 13 16 18 17 13 13 12 12 12 12 12 11
12 13 11 10 10 12 12 12 12 9 10 10 10 10 11 12 11 12 12 11 10 9 7 8 12 15 17 15 13 15 13 12 12 16 15 16 16 15 15 14 13 13 12 13 12
11 13 12 14 13 13 12 14 12 13 11 10 11 11 12 14 13 13 12 12 11 10 10 10 14 13 12 11 12 13 13 12 13 13 15 14 14 15 15 15 13 12 12 13 13
11 11 11 12 13 14 12 13 12 14 13 14 13 13 13 14 14 14 13 12 12 11 11 11 15 15 16 12 12 14 13 14 13 13 12 12 15 13 14 14 14 13 13 13 13
6 6 9 12 12 13 13 12 11 12 13 12 12 13 13 13 11 11 11 11 12 13 13 14 15 17 19 14 14 17 14 12 12 12 12 14 15 14 15 14 14 13 12 13 13